Weather History for Nome, AK

Change the Weather History Date:

Monday, February 13, 2012

  Actual Average Record
Temperature  
Mean Temperature 26 °F -  
Max Temperature 28 °F 15 °F 48 °F (1986)
Min Temperature 23 °F -1 °F -37 °F (1964)
Degree Days  
Heating Degree Days 39 58  
Month to date heating degree days 687 762  
Since 1 July heating degree days 9483 8433  
Cooling Degree Days 0    
Month to date cooling degree days 0  
Year to date cooling degree days 0  
Moisture  
Dew Point 24 °F    
Average Humidity 0    
Maximum Humidity 0    
Minimum Humidity 0    
Precipitation  
Precipitation 0.01 in 0.04 in 0.38 in (1996)
Month to date precipitation 0.87 0.43  
Year to date precipitation 1.03 1.37  
Snow  
Snow 0.20 in 0.40 in 6.70 in (1996)
Month to date snowfall 15.0 5.4  
Since 1 July snowfall 62.6 49.9  
Snow Depth 28.00 in    
Sea Level Pressure  
Sea Level Pressure 29.25 in    
Wind  
Wind Speed 5 mph (NE)    
Max Wind Speed 13 mph    
Max Gust Speed 15 mph    
Visibility 8 miles    
Events Snow    
T = Trace of Precipitation, MM = Missing Value Source: NWS Daily Summary

Daily Weather History Graph

Daily Weather History Graph

Search for Another Location

Airport:

Trip Planner

Search our weather history database for the weather conditions in past years. The results will help you decide how hot, cold, wet, or windy it might be!

Date:

Astronomy

Feb. 13, 2012 Rise Set
Actual Time 10:06 AM AKST 6:26 PM AKST
Civil Twilight 9:13 AM AKST 7:19 PM AKST
Nautical Twilight 8:16 AM AKST 8:16 PM AKST
Astronomical Twilight 7:20 AM AKST 9:12 PM AKST
Moon 3:32 AM AKST (2/13) 10:13 AM AKST (2/13)
Length of Visible Light 10h 05m
Length of Day
8h 20m
Waning Gibbous, 60% of the Moon is Illuminated
Feb 13
Waning Gibbous
Feb 14
Last Quarter
Feb 21
New
Feb 29
First Quarter
Mar 8
Full

Hourly Weather History & Observations

Time (AKST) Temp. Windchill Dew Point Humidity Pressure Visibility Wind Dir Wind Speed Gust Speed Precip Events Conditions
12:12 AM 24.8 °F 15.3 °F 24.8 °F 100% 29.16 in 9.0 mi ESE 9.2 mph - 0.00 in   Overcast
12:45 AM 24.8 °F 14.6 °F 24.8 °F 100% 29.17 in 7.0 mi ESE 10.4 mph - 0.00 in   Overcast
12:53 AM 25.0 °F 14.2 °F 25.0 °F 100% 29.18 in 3.0 mi ESE 11.5 mph - 0.00 in   Overcast
1:22 AM 24.8 °F 15.3 °F 24.8 °F 100% 29.18 in 8.0 mi East 9.2 mph - 0.00 in Snow Light Snow
1:53 AM 25.0 °F 14.8 °F 24.1 °F 96% 29.20 in 10.0 mi East 10.4 mph - 0.00 in   Overcast
2:53 AM 25.0 °F 15.5 °F 24.1 °F 96% 29.21 in 10.0 mi East 9.2 mph - 0.00 in   Overcast
3:23 AM 24.8 °F 14.6 °F 24.8 °F 100% 29.20 in 8.0 mi East 10.4 mph - 0.00 in Snow Light Snow
3:44 AM 24.8 °F 15.3 °F 24.8 °F 100% 29.21 in 9.0 mi East 9.2 mph - 0.00 in   Overcast
3:53 AM 25.0 °F 14.8 °F 25.0 °F 100% 29.21 in 9.0 mi East 10.4 mph - 0.00 in   Overcast
4:32 AM 24.8 °F 15.3 °F 24.8 °F 100% 29.21 in 9.0 mi East 9.2 mph - N/A   Overcast
4:53 AM 25.0 °F 14.8 °F 25.0 °F 100% 29.21 in 10.0 mi East 10.4 mph - N/A   Overcast
5:53 AM 26.1 °F 17.6 °F 25.0 °F 96% 29.21 in 10.0 mi ENE 8.1 mph - N/A   Overcast
6:53 AM 27.0 °F 19.5 °F 25.0 °F 92% 29.22 in 10.0 mi East 6.9 mph - N/A   Overcast
7:01 AM 26.6 °F 20.0 °F 24.8 °F 93% 29.22 in 10.0 mi East 5.8 mph - N/A   Overcast
7:28 AM 28.4 °F - 24.8 °F 86% 29.23 in 10.0 mi Calm Calm - N/A   Overcast
7:53 AM 28.0 °F 24.2 °F 25.0 °F 88% 29.23 in 10.0 mi Variable 3.5 mph - N/A   Overcast
8:53 AM 27.0 °F 19.5 °F 25.0 °F 92% 29.24 in 10.0 mi NE 6.9 mph - N/A   Overcast
9:42 AM 26.6 °F 17.5 °F 23.0 °F 86% 29.24 in 10.0 mi NNE 9.2 mph - N/A   Overcast
9:53 AM 26.1 °F 17.6 °F 24.1 °F 92% 29.25 in 10.0 mi NNE 8.1 mph - N/A   Overcast
10:53 AM 25.0 °F 17.1 °F 21.9 °F 88% 29.26 in 10.0 mi NNE 6.9 mph - N/A   Overcast
11:50 AM 26.6 °F 18.2 °F 21.2 °F 80% 29.26 in 10.0 mi NNW 8.1 mph - N/A   Overcast
11:53 AM 26.1 °F 17.6 °F 21.9 °F 84% 29.26 in 10.0 mi NNW 8.1 mph - N/A   Overcast
12:16 PM 26.6 °F 20.0 °F 21.2 °F 80% 29.26 in 10.0 mi NNW 5.8 mph - N/A   Overcast
12:53 PM 27.0 °F 21.6 °F 21.9 °F 81% 29.27 in 10.0 mi NNE 4.6 mph - N/A   Overcast
1:53 PM 27.0 °F 21.6 °F 21.9 °F 81% 29.28 in 10.0 mi NW 4.6 mph - N/A   Overcast
2:53 PM 26.1 °F - 23.0 °F 88% 29.28 in 4.0 mi Calm Calm - 0.00 in Snow Light Snow
3:05 PM 26.6 °F - 23.0 °F 86% 29.27 in 2.5 mi Calm Calm - 0.00 in Snow Light Snow
3:13 PM 26.6 °F - 24.8 °F 93% 29.27 in 1.5 mi Calm Calm - 0.00 in Snow Light Snow
3:53 PM 27.0 °F - 25.0 °F 92% 29.28 in 1.5 mi Calm Calm - 0.01 in Snow Light Snow
4:00 PM 26.6 °F - 24.8 °F 93% 29.28 in 2.0 mi Calm Calm - 0.00 in Snow Light Snow
4:12 PM 26.6 °F - 24.8 °F 93% 29.28 in 3.0 mi Calm Calm - 0.00 in Snow Light Snow
4:28 PM 26.6 °F - 24.8 °F 93% 29.28 in 2.0 mi Calm Calm - 0.00 in Snow Light Snow
4:53 PM 26.1 °F - 24.1 °F 92% 29.28 in 3.0 mi Calm Calm - 0.00 in Snow Light Snow
5:03 PM 24.8 °F - 24.8 °F 100% 29.28 in 9.0 mi Calm Calm - 0.00 in Snow Light Snow
5:53 PM 25.0 °F 18.1 °F 23.0 °F 92% 29.29 in 9.0 mi NW 5.8 mph - 0.00 in   Mostly Cloudy
6:53 PM 24.1 °F - 21.9 °F 91% 29.30 in 10.0 mi Calm Calm - N/A   Mostly Cloudy
7:53 PM 25.0 °F - 21.9 °F 88% 29.31 in 10.0 mi Calm Calm - N/A   Overcast
8:53 PM 26.1 °F 21.9 °F 23.0 °F 88% 29.33 in 10.0 mi North 3.5 mph - N/A   Overcast
9:53 PM 26.1 °F - 24.1 °F 92% 29.34 in 10.0 mi Calm Calm - N/A   Overcast
10:53 PM 25.0 °F - 21.9 °F 88% 29.35 in 10.0 mi Calm Calm - N/A   Overcast
11:53 PM 24.8 °F - 21.2 °F 86% 29.36 in 10.0 mi Calm Calm - N/A   Overcast